[[{"header":{"parameterUnit":"m.s-1","parameterCategory":1,"la1":30.2992,"la2":30.254,"lo1":-89.0895,"lo2":-89.0443,"dy":0.0025,"dx":0.0025,"nx":19,"ny":19,"refTime":"2026-04-19T09:00:00:Z","depth":0,"parameterNumber":2,"parameterNumberName":"U-component_of_WINDS"},"data":[0,0,0,-3.0994,-3.0997,-3.1116,-3.1116,-3.128,-3.1281,0,0,0,0,0,0,0,0,0,0,0,-3.0968,-3.0969,-3.0994,-3.0997,-3.1116,-3.1116,-3.128,-3.1281,0,0,0,0,0,0,0,0,0,0,0,-3.0967,-3.0969,-3.0971,-3.0998,-3.1116,-3.1116,-3.1279,-3.1185,0,0,0,0,0,0,0,0,0,0,-3.1068,-3.1052,-3.0969,-3.0971,-3.0999,-3.1116,-3.1116,-3.118,-3.1191,-3.1232,0,-3.1271,0,-3.1279,-3.1293,-3.1294,0,0,0,-3.0991,-3.1044,-3.1068,-3.0971,-3.1,-3.1115,-3.106,-3.1186,-3.1198,-3.1246,-3.1274,-3.1279,-3.1282,-3.1294,-3.1295,-3.1555,-3.1556,0,0,-3.0984,-3.0994,-3.106,-3.1076,-3.106,-3.1057,-3.1064,-3.1193,-3.1224,-3.1274,-3.1283,-3.1285,-3.1296,-3.1297,-3.1553,-3.1555,0,0,0,-3.097,-3.099,-3.101,-3.107,-3.109,-3.106,-3.1069,-3.1218,-3.1224,-3.1285,-3.1286,-3.1297,-3.1299,-3.1552,-3.1554,-3.164,0,0,0,-3.0966,-3.0981,-3.1008,-3.1015,-3.1088,-3.1156,-3.1091,-3.1215,-3.1229,-3.1286,-3.1297,-3.13,-3.155,-3.1553,-3.1634,-3.1679,0,0,0,-3.0957,-3.098,-3.1,-3.1015,-3.1067,-3.1154,-3.1167,-3.1218,-3.1231,-3.1294,-3.1301,-3.1549,-3.1552,-3.1628,-3.167,-3.175,0,0,0,-3.0951,-3.1075,-3.1002,-3.1141,-3.1066,-3.1206,-3.1166,-3.1269,-3.1334,-3.1298,-3.155,-3.1554,-3.1627,-3.1664,-3.1744,-3.182,-3.1852,0,0,-3.1113,-3.1095,-3.1175,-3.1114,-3.1269,-3.1187,-3.1354,-3.1404,-3.14,-3.1503,-3.1509,-3.1635,-3.1669,-3.1749,-3.2028,-3.2053,0,0,0,-3.123,-3.1288,-3.1327,-3.1389,-3.143,-3.1468,-3.1491,-3.1508,-3.1595,-3.1456,-3.1685,-3.1705,-3.1751,-3.1787,-3.1809,-3.1848,-3.157,-3.157,-3.157,-3.1474,-3.1462,-3.1595,-3.1598,-3.1658,-3.168,-3.1727,-3.1755,-3.1726,-3.178,-3.1811,-3.1982,-3.2024,-3.204,-3.2081,-3.1849,-3.1849,-3.185,-3.185,-3.171,-3.1791,-3.1748,-3.1862,-3.1849,-3.1943,-3.1968,-3.1944,-3.2029,-3.1958,-3.1998,-3.1921,-3.2069,-3.2103,-3.1856,-3.1855,-3.1854,-3.1854,-3.1853,-3.1869,-3.1906,-3.1925,-3.2013,-3.2081,-3.2079,-3.2163,-3.2147,-3.2133,-3.2173,-3.2203,-3.2202,-3.2199,-3.2188,-3.2189,-3.2189,-3.219,-3.219,-3.2191,-3.2027,-3.2046,-3.212,-3.2172,-3.2209,-3.2256,-3.2277,-3.2313,-3.2348,-3.233,-3.233,-3.2295,-3.2085,-3.2033,-3.22,-3.2198,-3.2197,-3.2196,-3.2196,-3.2273,-3.2214,-3.2328,-3.2365,-3.2424,-3.2493,-3.2471,-3.2545,-3.2571,-3.2613,-3.2569,-3.2416,-3.2396,-3.2379,-3.2336,-3.2571,-3.2571,-3.2571,-3.2571,-3.2408,-3.2396,-3.2508,-3.2568,-3.2625,-3.2616,-3.2743,-3.276,-3.2768,-3.2783,-3.2746,-3.2687,-3.267,-3.2661,-3.2637,-3.2596,-3.2893,-3.2894,-3.2894,-3.2558,-3.2551,-3.2663,-3.267,-3.2715,-3.2753,-3.2872,-3.2941,-3.2938,-3.2907,-3.2795,-3.2781,-3.2686,-3.2655,-3.2623,-3.2587,-3.2512,0,0]},{"header":{"parameterUnit":"m.s-1","parameterCategory":1,"la1":30.2992,"la2":30.254,"lo1":-89.0895,"lo2":-89.0443,"dy":0.0025,"dx":0.0025,"nx":19,"ny":19,"refTime":"2026-04-19T09:00:00:Z","depth":0,"parameterNumber":3,"parameterNumberName":"V-component_of_WINDS"},"data":[0,0,0,-6.2798,-6.2802,-6.2975,-6.2976,-6.3203,-6.3206,0,0,0,0,0,0,0,0,0,0,0,-6.2756,-6.2758,-6.2798,-6.2803,-6.2975,-6.2976,-6.3203,-6.3206,0,0,0,0,0,0,0,0,0,0,0,-6.2755,-6.2757,-6.276,-6.2803,-6.2975,-6.2976,-6.3203,-6.3069,0,0,0,0,0,0,0,0,0,0,-6.29,-6.287,-6.2757,-6.276,-6.2804,-6.2975,-6.2976,-6.3062,-6.3077,-6.313,0,-6.3182,0,-6.3198,-6.3222,-6.3223,0,0,0,-6.2795,-6.2857,-6.2897,-6.276,-6.2806,-6.2974,-6.2895,-6.307,-6.3087,-6.315,-6.3185,-6.3193,-6.3202,-6.3223,-6.3224,-6.356,-6.3562,0,0,-6.2786,-6.2791,-6.2885,-6.2908,-6.2886,-6.289,-6.2901,-6.3081,-6.3118,-6.3186,-6.3199,-6.3205,-6.3225,-6.3227,-6.3558,-6.356,0,0,0,-6.2763,-6.2784,-6.2819,-6.2899,-6.293,-6.2895,-6.2907,-6.311,-6.3121,-6.3201,-6.3208,-6.3226,-6.3229,-6.3556,-6.3559,-6.3659,0,0,0,-6.2757,-6.2771,-6.2815,-6.2819,-6.2927,-6.3023,-6.2933,-6.3109,-6.3129,-6.3207,-6.3226,-6.3231,-6.3554,-6.3557,-6.3651,-6.3704,0,0,0,-6.2741,-6.2769,-6.2797,-6.2819,-6.2894,-6.302,-6.3041,-6.3113,-6.3134,-6.3223,-6.3232,-6.3552,-6.3557,-6.3645,-6.3694,-6.3793,0,0,0,-6.2725,-6.2883,-6.2799,-6.2977,-6.2893,-6.3082,-6.304,-6.318,-6.3268,-6.3227,-6.3554,-6.3559,-6.3643,-6.3687,-6.3787,-6.3878,-6.3917,0,0,-6.2926,-6.2907,-6.3012,-6.2942,-6.3147,-6.3055,-6.3274,-6.3348,-6.3351,-6.3489,-6.3497,-6.3654,-6.3693,-6.3792,-6.4135,-6.4166,0,0,0,-6.3077,-6.3152,-6.3205,-6.3291,-6.3354,-6.3411,-6.3452,-6.3479,-6.3597,-6.3424,-6.3717,-6.374,-6.3798,-6.3841,-6.3868,-6.3916,-6.3579,-6.3579,-6.3578,-6.3367,-6.3364,-6.3536,-6.3554,-6.3637,-6.3678,-6.3744,-6.3786,-6.3757,-6.3826,-6.3867,-6.4076,-6.4127,-6.4147,-6.4198,-6.3916,-6.3916,-6.3917,-6.3917,-6.3661,-6.3766,-6.3725,-6.3877,-6.3871,-6.3997,-6.4041,-6.4016,-6.413,-6.4045,-6.4096,-6.4002,-6.4181,-6.4225,-6.3924,-6.3923,-6.3922,-6.3921,-6.3921,-6.385,-6.39,-6.3932,-6.4055,-6.4149,-6.416,-6.4272,-6.4262,-6.4253,-6.4303,-6.4344,-6.4342,-6.4338,-6.4324,-6.4325,-6.4325,-6.4326,-6.4326,-6.4327,-6.4033,-6.4067,-6.4164,-6.4244,-6.4297,-6.4365,-6.4407,-6.4457,-6.451,-6.4494,-6.4494,-6.4457,-6.42,-6.4135,-6.4338,-6.4336,-6.4335,-6.4334,-6.4333,-6.433,-6.4262,-6.4413,-6.4466,-6.4557,-6.4651,-6.4637,-6.4741,-6.4781,-6.4836,-6.4788,-6.46,-6.4579,-6.4558,-6.4504,-6.4789,-6.4789,-6.4789,-6.4789,-6.4489,-6.4478,-6.463,-6.4715,-6.4798,-6.4801,-6.4967,-6.5,-6.5023,-6.5047,-6.5004,-6.4932,-6.4911,-6.4901,-6.4873,-6.4822,-6.5183,-6.5183,-6.5183,-6.4671,-6.4667,-6.4813,-6.4838,-6.4908,-6.4967,-6.5123,-6.522,-6.5231,-6.5199,-6.5064,-6.5048,-6.4931,-6.4894,-6.4859,-6.4815,-6.4722,0,0]}]]